Offutt Air Force Base, NE

5:22 PM CDT on September 27, 2016 (GMT -0500)
Offutt Air Force Base

Weather History for KOFF - August, 2013

Change the Weather History Date:

Monday, August 19, 2013

  Actual Average Record
Temperature  
Mean Temperature 74 °F -  
Max Temperature 86 °F 82 °F 95 °F (1998)
Min Temperature 62 °F 63 °F 47 °F (2012)
Cooling Degree Days 9    
Growing Degree Days 24 (Base 50)    
Moisture  
Dew Point 66 °F    
Average Humidity 76    
Maximum Humidity 99    
Minimum Humidity 54    
Precipitation  
Precipitation 0.00 in - - ()
Sea Level Pressure  
Sea Level Pressure 30.01 in    
Wind  
Wind Speed 8 mph (SE)    
Max Wind Speed 17 mph    
Max Gust Speed 23 mph    
Visibility 10 miles    
Events      
Averages and records for this station are not official NWS values.
T = Trace of Precipitation, MM = Missing Value Source: NWS Daily Summary

Daily Weather History Graph

Daily Weather History Graph

Search for Another Location

Airport or City:

Trip Planner

Search our weather history database for the weather conditions in past years. The results will help you decide how hot, cold, wet, or windy it might be!

Date:

Astronomy

Aug. 19, 2013 Rise Set
Actual Time 6:37 AM CDT 8:16 PM CDT
Civil Twilight 6:08 AM CDT 8:45 PM CDT
Nautical Twilight 5:32 AM CDT 9:20 PM CDT
Astronomical Twilight 4:55 AM CDT 9:58 PM CDT
Moon 7:07 PM CDT (8/19) 4:57 AM CDT (8/19)
Length of Visible Light 14h 37m
Length of Day
13h 38m
Waxing Gibbous, 97% of the Moon is Illuminated
Aug 19
Waxing Gibbous
Aug 20
Full
Aug 28
Last Quarter
Sep 5
New
Sep 12
First Quarter

Hourly Weather History & Observations

Time (CDT) Temp. Heat Index Dew Point Humidity Pressure Visibility Wind Dir Wind Speed Gust Speed Precip Events Conditions
12:58 AM 63.1 °F - 62.8 °F 99% 30.07 in 10.0 mi East 5.8 mph - N/A   Clear
1:58 AM 62.2 °F - 61.9 °F 99% 30.05 in 10.0 mi East 4.6 mph - N/A   Clear
2:58 AM 63.0 °F - 62.6 °F 99% 30.05 in 10.0 mi East 5.8 mph - N/A   Partly Cloudy
3:58 AM 63.0 °F - 62.8 °F 99% 30.06 in 10.0 mi East 6.9 mph - N/A   Partly Cloudy
4:58 AM 62.1 °F - 61.9 °F 99% 30.05 in 10.0 mi East 5.8 mph - N/A   Partly Cloudy
5:58 AM 64.0 °F - 63.5 °F 98% 30.05 in 10.0 mi East 4.6 mph - N/A   Mostly Cloudy
6:58 AM 64.0 °F - 63.0 °F 96% 30.05 in 10.0 mi East 5.8 mph - N/A   Clear
7:58 AM 65.3 °F - 64.2 °F 96% 30.05 in 10.0 mi SE 5.8 mph - N/A   Partly Cloudy
8:58 AM 68.7 °F - 64.8 °F 87% 30.06 in 10.0 mi SSE 6.9 mph - N/A   Clear
9:58 AM 74.8 °F - 64.4 °F 70% 30.06 in 10.0 mi South 10.4 mph - N/A   Clear
10:58 AM 78.6 °F - 65.8 °F 65% 30.06 in 10.0 mi SSE 11.5 mph - N/A   Clear
11:58 AM 81.3 °F 83.5 °F 66.0 °F 60% 30.05 in 10.0 mi South 15.0 mph - N/A   Clear
12:58 PM 83.3 °F 85.7 °F 66.7 °F 57% 30.02 in 10.0 mi South 17.3 mph - N/A   Clear
1:58 PM 84.4 °F 86.6 °F 66.0 °F 54% 30.00 in 10.0 mi South 16.1 mph 21.9 mph N/A   Clear
2:58 PM 85.5 °F 88.2 °F 66.9 °F 54% 29.98 in 10.0 mi South 16.1 mph 23.0 mph N/A   Clear
3:30 PM 86.0 °F 89.4 °F 68.0 °F 55% 29.98 in 10.0 mi SSW 12.7 mph 21.9 mph N/A   Clear
3:58 PM 86.4 °F 89.7 °F 68.0 °F 54% 29.96 in 10.0 mi South 13.8 mph 21.9 mph N/A   Clear
4:58 PM 86.2 °F 89.4 °F 68.0 °F 54% 29.95 in 10.0 mi South 12.7 mph 20.7 mph N/A   Partly Cloudy
5:58 PM 85.5 °F 89.1 °F 68.5 °F 57% 29.94 in 10.0 mi South 16.1 mph - N/A   Clear
6:58 PM 83.7 °F 86.7 °F 68.2 °F 59% 29.93 in 10.0 mi SSE 12.7 mph - N/A   Partly Cloudy
7:58 PM 80.6 °F 83.4 °F 68.2 °F 66% 29.94 in 10.0 mi SSE 9.2 mph - N/A   Clear
8:58 PM 77.4 °F - 68.9 °F 75% 29.95 in 10.0 mi SE 8.1 mph - N/A   Clear
9:58 PM 73.4 °F - 69.1 °F 86% 29.97 in 10.0 mi ESE 6.9 mph - N/A   Clear
10:58 PM 72.9 °F - 68.7 °F 87% 29.97 in 10.0 mi SE 8.1 mph - N/A   Clear
11:58 PM 74.1 °F - 67.5 °F 80% 29.95 in 10.0 mi SE 8.1 mph - N/A   Clear